CZ-6A DEB, 54525

Orbit data source: Space-Track

CZ-6A DEB, 54525 is space debris in SSO originally from a launch on Fri, 11 Nov 2022 UTC launched from the Taiyaun Space Center, China (TSC). Debris objects in space refer to the collection of defunct objects orbiting the Earth. Examples of debris include non-operational satellites, rocket bodies, and fragments generated from explosions, collisions, or faulty payload assembly.

Loading next visibility...
Identifier
54525, 2022-151KD
Orbit
SSO
Country
Flag of CNCN / PRC
Related business
Manufacturer
SAST
Mission
Spacecraft
Bus & Motor
Unknown
Mass
Unknown
Launch date (UTC)
2022-11-11 (4 years ago)
Launch vehicle
Unknown
Launch site
Taiyaun Space Center, China (TSC)
Object type
Payload
Rocket body
Debris
Shape & HBR
Unknown shape, 0.2 m
Radar Cross Section
Medium (>0.1 m² and <1 m²)

Expand to show TLE details & history
Last TLE update: 11 hours ago

TLE from 11 hours ago
0 CZ-6A DEB
1 54525U 22151KD  26263.19127000  .00000309  00000-0  21180-3 0  9998
2 54525  98.8692 250.7578 0070034 110.3172 250.5540 14.05514905197493
Epoch: 2026-09-20T04:35Z
TLE epoch observation values (Epoch: 2026-09-20T04:35:25.728Z)
Latitude
-0.00002°
Longitude
-177.18839°
Altitude
894.88 km
Speed
7.396 km/s
True Right ascension
16h 43m 01s
True Declination
0° 00' 00"
Sunlit
Object was in daylight at epoch
Visualization orbit readout
Latitude
Unknown
Longitude
Unknown
Altitude
Unknown
Speed
Unknown
Apparent Right ascension
Unknown
Apparent Declination
Unknown
Sunlit
N/A
Visualization observer readout
Local Sidereal Time
08:48:12
Azimuth
Unknown
Elevation
Unknown
Doppler factor
Unknown
Orbital elements
Apogee altitude
922.721 km
Perigee altitude
821.171 km
Semi-major axis
7,250.083 km
Eccentricity
0.007
Inclination
98.8692°
RAAN
250.7578°
Arg. of periapsis
110.3172°
True anomaly
249.79947°
Mean anomaly
250.554°
Eccentric anomaly
250.17651°
Mean motion
3.51584 °/min
Orbital period
102.39 mins
BSTAR
0.0002118
Loading maneuver chart data...
Computing Atmospheric mass density...

Documentation

Showing up to 5 results
|